| time (UTC) | temp F | wind direction | speed knots | gust knots | rain 1hr in | rain 24hr in | rain mn in | humidity % | barometer mb |
| 20260505193036 | 74 | 194 | 2.6 | 10.4 | 0.00 | 0.00 | 0.00 | 32 | 1014.1 |
| 20260505191534 | 74 | 222 | 6.1 | 14.8 | 0.00 | 0.00 | 0.00 | 30 | 1014.4 |
| 20260505190032 | 74 | 145 | 3.5 | 12.2 | 0.00 | 0.00 | 0.00 | 35 | 1014.8 |
| 20260505184531 | 73 | 128 | 4.3 | 15.6 | 0.00 | 0.00 | 0.00 | 32 | 1015.1 |
| 20260505183042 | 74 | 175 | 5.2 | 13.0 | 0.00 | 0.00 | 0.00 | 32 | 1015.2 |
| 20260505181528 | 74 | 178 | 5.2 | 10.4 | 0.00 | 0.00 | 0.00 | 31 | 1015.2 |
| 20260505180026 | 72 | 218 | 5.2 | 10.4 | 0.00 | 0.00 | 0.00 | 30 | 1015.1 |
| 20260505174523 | 72 | 198 | 5.2 | 12.2 | 0.00 | 0.00 | 0.00 | 31 | 1015.3 |
| 20260505173023 | 72 | 215 | 3.5 | 11.3 | 0.00 | 0.00 | 0.00 | 29 | 1015.8 |
| 20260505171520 | 71 | 215 | 4.3 | 14.8 | 0.00 | 0.00 | 0.00 | 31 | 1015.9 |
| 20260505170020 | 71 | 261 | 4.3 | 11.3 | 0.00 | 0.00 | 0.00 | 36 | 1016.1 |
| 20260505164519 | 70 | 244 | 5.2 | 8.7 | 0.00 | 0.00 | 0.00 | 35 | 1016.0 |
| 20260505163016 | 70 | 228 | 5.2 | 13.9 | 0.00 | 0.00 | 0.00 | 34 | 1015.9 |
| 20260505161515 | 70 | 232 | 4.3 | 8.7 | 0.00 | 0.00 | 0.00 | 35 | 1015.8 |
| 20260505153007 | 68 | 189 | 2.6 | 8.7 | 0.00 | 0.00 | 0.00 | 44 | 1016.4 |
| 20260505151509 | 68 | 187 | 3.5 | 7.0 | 0.00 | 0.00 | 0.00 | 43 | 1016.5 |
| 20260505124544 | 58 | 104 | 0.0 | 1.7 | 0.00 | 0.00 | 0.00 | 55 | 1015.7 |
| 20260505123038 | 55 | 104 | 0.9 | 2.6 | 0.00 | 0.00 | 0.00 | 57 | 1015.6 |
| 20260505121541 | 52 | 104 | 0.9 | 2.6 | 0.00 | 0.00 | 0.00 | 62 | 1015.7 |
| 20260505120046 | 49 | 113 | 0.9 | 2.6 | 0.00 | 0.00 | 0.00 | 63 | 1015.3 |
| 20260505114535 | 49 | 126 | 1.7 | 3.5 | 0.00 | 0.00 | 0.00 | 61 | 1015.4 |
| 20260505113035 | 50 | 126 | 1.7 | 2.6 | 0.00 | 0.00 | 0.00 | 59 | 1015.3 |
| 20260505111533 | 51 | 126 | 0.9 | 2.6 | 0.00 | 0.00 | 0.00 | 56 | 1014.9 |
| 20260505101538 | 49 | 313 | 1.7 | 3.5 | 0.00 | 0.00 | 0.00 | 60 | 1015.0 |
| 20260505100029 | 49 | 312 | 2.6 | 4.3 | 0.00 | 0.00 | 0.00 | 60 | 1014.8 |
| 20260505094530 | 49 | 315 | 3.5 | 4.3 | 0.00 | 0.00 | 0.00 | 60 | 1014.8 |
| 20260505093028 | 49 | 315 | 2.6 | 4.3 | 0.00 | 0.00 | 0.00 | 60 | 1014.9 |
| 20260505091526 | 50 | 311 | 2.6 | 3.5 | 0.00 | 0.00 | 0.00 | 60 | 1014.9 |
| 20260505090025 | 50 | 308 | 1.7 | 4.3 | 0.00 | 0.00 | 0.00 | 60 | 1014.8 |
| 20260505084534 | 50 | 312 | 3.5 | 5.2 | 0.00 | 0.00 | 0.00 | 60 | 1014.8 |
| 20260505083020 | 51 | 304 | 4.3 | 6.1 | 0.00 | 0.00 | 0.00 | 59 | 1014.8 |
| 20260505081518 | 52 | 299 | 4.3 | 7.0 | 0.00 | 0.00 | 0.00 | 57 | 1014.8 |
| 20260505080012 | 54 | 281 | 3.5 | 7.8 | 0.00 | 0.00 | 0.00 | 52 | 1014.8 |
| 20260505074510 | 55 | 280 | 2.6 | 6.1 | 0.00 | 0.00 | 0.00 | 50 | 1014.7 |
| 20260505073009 | 56 | 290 | 2.6 | 3.5 | 0.00 | 0.00 | 0.00 | 48 | 1014.8 |
| 20260505071507 | 57 | 289 | 2.6 | 4.3 | 0.00 | 0.00 | 0.00 | 47 | 1014.8 |
| 20260505070007 | 57 | 242 | 1.7 | 3.5 | 0.00 | 0.00 | 0.00 | 47 | 1014.9 |
| 20260505064506 | 57 | 241 | 1.7 | 3.5 | 0.00 | 0.00 | 0.00 | 48 | 1014.9 |
| 20260505063008 | 56 | 240 | 3.5 | 7.8 | 0.00 | 0.00 | 0.00 | 49 | 1015.0 |
| 20260505061502 | 55 | 272 | 3.5 | 6.1 | 0.00 | 0.00 | 0.00 | 53 | 1015.2 |
| 20260505060100 | 56 | 252 | 2.6 | 6.1 | 0.00 | 0.00 | 0.00 | 53 | 1015.2 |
| 20260505054609 | 56 | 315 | 2.6 | 4.3 | 0.00 | 0.00 | 0.00 | 52 | 1015.2 |
| 20260505053100 | 56 | 229 | 1.7 | 2.6 | 0.00 | 0.00 | 0.00 | 51 | 1015.2 |
| 20260505051553 | 57 | 229 | 0.9 | 3.5 | 0.00 | 0.00 | 0.00 | 50 | 1015.3 |
| 20260505041553 | 59 | 246 | 0.0 | 1.7 | 0.00 | 0.00 | 0.00 | 47 | 1015.3 |
| 20260505040050 | 59 | 249 | 0.9 | 1.7 | 0.00 | 0.00 | 0.00 | 46 | 1015.5 |
| 20260505034540 | 60 | 248 | 0.0 | 0.9 | 0.00 | 0.00 | 0.00 | 46 | 1015.6 |
| 20260505033040 | 60 | 248 | 0.0 | 0.0 | 0.00 | 0.00 | 0.00 | 46 | 1015.7 |
| 20260505031544 | 60 | 248 | 0.9 | 2.6 | 0.00 | 0.00 | 0.00 | 45 | 1015.7 |
| 20260505030040 | 60 | 249 | 0.0 | 1.7 | 0.00 | 0.00 | 0.00 | 46 | 1015.6 |
| 20260505024552 | 61 | 249 | 0.0 | 2.6 | 0.00 | 0.00 | 0.00 | 46 | 1015.7 |
| 20260505023039 | 62 | 249 | 0.9 | 4.3 | 0.00 | 0.00 | 0.00 | 44 | 1015.6 |
| 20260505021539 | 63 | 193 | 1.7 | 6.1 | 0.00 | 0.00 | 0.00 | 42 | 1015.4 |
| 20260505020037 | 64 | 207 | 1.7 | 6.1 | 0.00 | 0.00 | 0.00 | 42 | 1015.3 |
| 20260505014637 | 64 | 169 | 1.7 | 5.2 | 0.00 | 0.00 | 0.00 | 40 | 1015.2 |
| 20260505013035 | 64 | 205 | 1.7 | 5.2 | 0.00 | 0.00 | 0.00 | 40 | 1015.1 |
| 20260505011535 | 65 | 190 | 1.7 | 3.5 | 0.00 | 0.00 | 0.00 | 40 | 1014.9 |
| 20260505010034 | 65 | 197 | 1.7 | 6.1 | 0.00 | 0.00 | 0.00 | 40 | 1014.8 |
| 20260505004539 | 65 | 183 | 2.6 | 6.1 | 0.00 | 0.00 | 0.00 | 38 | 1014.7 |
| 20260505003032 | 67 | 190 | 0.9 | 5.2 | 0.00 | 0.00 | 0.00 | 38 | 1014.6 |
| 20260505001532 | 68 | 180 | 1.7 | 4.3 | 0.00 | 0.00 | 0.00 | 36 | 1014.5 |
| 20260505000131 | 69 | 172 | 1.7 | 4.3 | 0.00 | 0.00 | 0.00 | 36 | 1014.5 |
| 20260504234535 | 70 | 187 | 0.9 | 3.5 | 0.00 | 0.00 | 0.00 | 36 | 1014.5 |
| 20260504233038 | 71 | 184 | 1.7 | 4.3 | 0.00 | 0.00 | 0.00 | 35 | 1014.4 |
| 20260504231530 | 71 | 196 | 0.9 | 3.5 | 0.00 | 0.00 | 0.00 | 33 | 1014.4 |
| 20260504230028 | 71 | 191 | 1.7 | 6.1 | 0.00 | 0.00 | 0.00 | 32 | 1014.2 |
| 20260504224527 | 71 | 213 | 2.6 | 7.8 | 0.00 | 0.00 | 0.00 | 30 | 1014.2 |
| 20260504223037 | 72 | 196 | 2.6 | 7.0 | 0.00 | 0.00 | 0.00 | 32 | 1014.1 |
| 20260504221528 | 73 | 195 | 1.7 | 8.7 | 0.00 | 0.00 | 0.00 | 32 | 1014.2 |
| 20260504220025 | 73 | 195 | 1.7 | 7.8 | 0.00 | 0.00 | 0.00 | 30 | 1014.3 |
| 20260504214526 | 73 | 201 | 1.7 | 5.2 | 0.00 | 0.00 | 0.00 | 33 | 1014.4 |
| 20260504213036 | 73 | 175 | 1.7 | 8.7 | 0.00 | 0.00 | 0.00 | 34 | 1014.4 |
| 20260504211528 | 72 | 196 | 4.3 | 8.7 | 0.00 | 0.00 | 0.00 | 32 | 1014.4 |
| 20260504210020 | 72 | 204 | 3.5 | 8.7 | 0.00 | 0.00 | 0.00 | 34 | 1014.4 |
| 20260504204534 | 73 | 229 | 3.5 | 9.6 | 0.00 | 0.00 | 0.00 | 34 | 1014.3 |
| 20260504203023 | 73 | 174 | 2.6 | 9.6 | 0.00 | 0.00 | 0.00 | 33 | 1014.4 |
| 20260504201519 | 73 | 187 | 2.6 | 9.6 | 0.00 | 0.00 | 0.00 | 32 | 1014.5 |
| 20260504200017 | 74 | 198 | 3.5 | 7.8 | 0.00 | 0.00 | 0.00 | 32 | 1014.5 |
| 20260504194514 | 74 | 221 | 4.3 | 8.7 | 0.00 | 0.00 | 0.00 | 32 | 1014.6 |